sat.trackr.live / text

‹ back to catalog

GONETS-M 3

NORAD 38734 · 2012-041B

PAYLOAD ACTIVE UNKNOWN

§ Identity

Operator
Country
CIS
Launch date
2012-07-28
Launch site
PLMSC
Launch vehicle
Mass (kg)
RCS (m²)
1.66

External: N2YO · Heavens-Above · Gunter

§ Orbital elements

Epoch: 2026-05-25T03:58:09.918048Z

Period
115.67 min
Inclination
82.4740°
Eccentricity
0.0017619
Mean motion
12.44901889 rev/d
Perigee alt
1,472.0 km
Apogee alt
1,499.7 km
Semi-major
7,864.0 km
B*
-3.8520e-5
RAAN
79.2298°
Arg perigee
109.0657°
Mean anomaly
251.2334°
Rev number
62,780

§ Raw data

GONETS-M 31 38734U 12041B   26145.16539257  .00000005  00000+0 -38520-4 0  99962 38734  82.4740  79.2298 0017619 109.0657 251.2334 12.44901889627800

JSON: /api/v1/satellites/38734 · /tle

For live sub-satellite position, see the globe view (requires WebGL).

§ Visibility from observer

Set your observer location to see the next 7 days of passes ≥ 10°. The values pass through the URL so the page stays shareable.

No JS? Fill the form by hand. The geolocation button needs JavaScript.